GW6696 Weather Reports


Display with metric or nautical units.
time (UTC)temp
F
wind
direction
speed
MPH
gust
MPH
rain 1hr
in
rain 24hr
in
rain mn
in
humidity
%
barometer
mb
20260506084500 65 316 9.0 11.0 0.00 0.00 0.00 47 1013.8
20260506083959 65 322 10.0 12.0 0.00 0.00 0.00 47 1013.8
20260506083501 65 320 8.0 11.0 0.00 0.00 0.00 47 1013.8
20260506083019 65 318 8.0 10.0 0.00 0.00 0.00 48 1013.8
20260506082602 65 318 8.0 10.0 0.00 0.00 0.00 48 1013.8
20260506082058 65 319 8.0 11.0 0.00 0.00 0.00 47 1013.9
20260506081503 65 314 8.0 9.0 0.00 0.00 0.00 48 1013.9
20260506081025 65 314 8.0 9.0 0.00 0.00 0.00 48 1013.9
20260506080504 65 331 9.0 11.0 0.00 0.00 0.00 48 1013.8
20260506073500 66 331 8.0 12.0 0.00 0.00 0.00 46 1013.8
20260506073002 66 328 8.0 11.0 0.00 0.00 0.00 46 1013.8
20260506072611 66 328 8.0 11.0 0.00 0.00 0.00 46 1013.8
20260506072104 66 325 8.0 10.0 0.00 0.00 0.00 46 1013.8
20260506071543 66 327 9.0 12.0 0.00 0.00 0.00 46 1013.7
20260506071211 66 328 9.0 14.0 0.00 0.00 0.00 46 1013.7
20260506070642 66 325 9.0 11.0 0.00 0.00 0.00 46 1013.6
20260506062018 67 330 8.0 11.0 0.00 0.00 0.00 45 1013.1
20260506061459 67 328 9.0 12.0 0.00 0.00 0.00 45 1013.1
20260506061020 67 328 9.0 12.0 0.00 0.00 0.00 45 1013.1
20260506060527 68 330 9.0 11.0 0.00 0.00 0.00 44 1013.1
20260506051018 69 322 9.0 12.0 0.00 0.00 0.00 42 1012.7
20260506050501 69 329 10.0 14.0 0.00 0.00 0.00 42 1012.6
20260506045058 70 328 9.0 14.0 0.00 0.00 0.00 41 1012.5
20260506044459 70 326 10.0 13.0 0.00 0.00 0.00 41 1012.4
20260506044023 70 317 10.0 14.0 0.00 0.00 0.00 41 1012.3
20260506043522 70 312 10.0 15.0 0.00 0.00 0.00 41 1012.2
20260506043006 70 312 9.0 14.0 0.00 0.00 0.00 41 1012.1
20260506042618 70 312 9.0 14.0 0.00 0.00 0.00 41 1012.1
20260506042110 70 313 10.0 14.0 0.00 0.00 0.00 40 1012.0
20260506041515 71 313 11.0 17.0 0.00 0.00 0.00 40 1011.8
20260506041045 71 320 11.0 16.0 0.00 0.00 0.00 40 1011.7
20260506040522 71 330 15.0 23.0 0.00 0.00 0.00 40 1011.5
20260506035959 71 335 15.0 21.0 0.00 0.00 0.00 39 1011.2
20260506035513 71 335 15.0 21.0 0.00 0.00 0.00 39 1011.2
20260506035040 72 331 13.0 19.0 0.00 0.00 0.00 39 1011.2
20260506034501 72 326 13.0 18.0 0.00 0.00 0.00 38 1011.2
20260506034001 72 328 15.0 21.0 0.00 0.00 0.00 38 1011.1
20260506033459 72 327 15.0 22.0 0.00 0.00 0.00 38 1011.0
20260506032959 73 326 11.0 18.0 0.00 0.00 0.00 37 1011.0
20260506032604 73 326 11.0 18.0 0.00 0.00 0.00 37 1011.0
20260506032100 73 327 8.0 11.0 0.00 0.00 0.00 37 1010.9
20260506031500 73 317 11.0 20.0 0.00 0.00 0.00 36 1010.8
20260506031041 73 317 11.0 20.0 0.00 0.00 0.00 36 1010.8
20260506030504 74 309 7.0 12.0 0.00 0.00 0.00 34 1010.5
20260506025958 75 308 8.0 11.0 0.00 0.00 0.00 33 1010.3
20260506025537 75 308 8.0 11.0 0.00 0.00 0.00 33 1010.3
20260506025027 75 301 7.0 11.0 0.00 0.00 0.00 33 1010.2
20260506024520 75 306 7.0 9.0 0.00 0.00 0.00 32 1010.0
20260506024000 76 294 9.0 12.0 0.00 0.00 0.00 31 1009.9
20260506023502 76 288 8.0 12.0 0.00 0.00 0.00 31 1009.8
20260506023032 76 288 8.0 12.0 0.00 0.00 0.00 31 1009.8
20260506022613 76 288 5.0 8.0 0.00 0.00 0.00 32 1009.7
20260506022107 76 254 8.0 13.0 0.00 0.00 0.00 32 1009.6
20260506021459 75 242 14.0 19.0 0.00 0.00 0.00 32 1009.4
20260506021041 75 242 14.0 19.0 0.00 0.00 0.00 32 1009.4
20260506020522 76 242 16.0 21.0 0.00 0.00 0.00 32 1009.3
20260506020000 76 237 17.0 23.0 0.00 0.00 0.00 32 1009.2
20260506015550 76 237 17.0 23.0 0.00 0.00 0.00 32 1009.2
20260506015052 76 232 16.0 23.0 0.00 0.00 0.00 32 1009.1
20260506014500 76 233 19.0 25.0 0.00 0.00 0.00 32 1009.0
20260506014000 76 241 20.0 29.0 0.00 0.00 0.00 31 1008.9
20260506013501 76 244 19.0 25.0 0.00 0.00 0.00 31 1008.9
20260506013000 76 239 19.0 27.0 0.00 0.00 0.00 31 1008.9
20260506012610 76 239 19.0 27.0 0.00 0.00 0.00 31 1008.9
20260506012105 76 230 18.0 25.0 0.00 0.00 0.00 31 1008.8
20260506011500 76 235 21.0 27.0 0.00 0.00 0.00 31 1008.9
20260506011041 76 235 21.0 27.0 0.00 0.00 0.00 31 1008.9
20260506010501 76 237 22.0 30.0 0.00 0.00 0.00 31 1008.8
20260506010000 77 242 17.0 23.0 0.00 0.00 0.00 30 1008.8
20260506005526 77 242 17.0 23.0 0.00 0.00 0.00 30 1008.8
20260506005028 77 245 18.0 24.0 0.00 0.00 0.00 30 1008.8
20260506004501 77 248 21.0 27.0 0.00 0.00 0.00 30 1008.8
20260506004000 77 246 21.0 30.0 0.00 0.00 0.00 29 1008.8
20260506003501 78 244 19.0 30.0 0.00 0.00 0.00 29 1008.8
20260506003001 77 246 20.0 27.0 0.00 0.00 0.00 29 1008.8
20260506002607 77 246 20.0 27.0 0.00 0.00 0.00 29 1008.8
20260506002100 78 249 20.0 29.0 0.00 0.00 0.00 28 1008.8
20260506001521 77 247 19.0 27.0 0.00 0.00 0.00 28 1008.7
20260506001019 77 247 19.0 27.0 0.00 0.00 0.00 28 1008.7
20260506000510 77 248 21.0 28.0 0.00 0.00 0.00 28 1008.8
20260506000001 78 246 24.0 31.0 0.00 0.00 0.00 28 1008.9
20260505235616 78 246 24.0 31.0 0.00 0.00 0.00 28 1008.9
20260505235129 77 240 26.0 33.0 0.00 0.00 0.00 28 1008.9
20260505234501 77 240 24.0 34.0 0.00 0.00 0.00 28 1008.8
20260505234024 78 236 25.0 35.0 0.00 0.00 0.00 28 1008.9
20260505233506 77 238 27.0 35.0 0.00 0.00 0.00 28 1008.7
20260505233002 78 237 24.0 32.0 0.00 0.00 0.00 28 1008.8
20260505232610 78 237 24.0 32.0 0.00 0.00 0.00 28 1008.8
20260505232100 78 238 22.0 30.0 0.00 0.00 0.00 27 1008.8
20260505231501 78 238 23.0 34.0 0.00 0.00 0.00 28 1008.9
20260505231020 78 238 23.0 34.0 0.00 0.00 0.00 28 1008.9
20260505230501 78 233 24.0 32.0 0.00 0.00 0.00 27 1008.9
20260505230005 79 238 20.0 27.0 0.00 0.00 0.00 27 1009.1
20260505225602 79 238 20.0 27.0 0.00 0.00 0.00 27 1009.1
20260505225054 78 235 21.0 28.0 0.00 0.00 0.00 27 1009.0
20260505224500 78 263 15.0 23.0 0.00 0.00 0.00 27 1009.3
20260505224000 79 242 21.0 29.0 0.00 0.00 0.00 27 1009.3
20260505223501 78 247 21.0 29.0 0.00 0.00 0.00 27 1009.3
20260505223000 78 238 19.0 28.0 0.00 0.00 0.00 28 1009.5
20260505222601 78 238 19.0 28.0 0.00 0.00 0.00 28 1009.5
20260505222100 78 241 19.0 30.0 0.00 0.00 0.00 28 1009.6
20260505221500 78 238 20.0 31.0 0.00 0.00 0.00 29 1009.8
20260505221019 78 238 20.0 31.0 0.00 0.00 0.00 29 1009.8
20260505220503 78 262 13.0 24.0 0.00 0.00 0.00 28 1010.0
20260505220003 78 340 13.0 30.0 0.00 0.00 0.00 29 1009.8
20260505215551 78 340 13.0 30.0 0.00 0.00 0.00 29 1009.8
20260505215104 77 237 8.0 16.0 0.00 0.00 0.00 29 1010.1
20260505214500 77 64 4.0 12.0 0.00 0.00 0.00 31 1010.2
20260505214002 77 339 4.0 8.0 0.00 0.00 0.00 31 1010.4
20260505213506 77 23 6.0 10.0 0.00 0.00 0.00 32 1010.4
20260505213016 77 23 6.0 10.0 0.00 0.00 0.00 32 1010.4
20260505212629 76 40 9.0 14.0 0.00 0.00 0.00 34 1010.5
20260505212108 76 81 8.0 15.0 0.00 0.00 0.00 34 1010.5
20260505211501 77 24 12.0 20.0 0.00 0.00 0.00 35 1010.6
20260505211042 77 24 12.0 20.0 0.00 0.00 0.00 35 1010.6
20260505210501 77 356 6.0 12.0 0.00 0.00 0.00 31 1010.8
20260505210000 77 342 12.0 19.0 0.00 0.00 0.00 31 1010.7
20260505205600 77 342 12.0 19.0 0.00 0.00 0.00 31 1010.7
20260505205037 77 247 16.0 29.0 0.00 0.00 0.00 29 1010.6
20260505204500 76 112 8.0 18.0 0.00 0.00 0.00 34 1010.7
20260505204000 76 45 7.0 14.0 0.00 0.00 0.00 33 1010.8
20260505203501 76 31 7.0 12.0 0.00 0.00 0.00 35 1011.0
20260505203016 76 31 7.0 12.0 0.00 0.00 0.00 35 1011.0
20260505202627 77 262 16.0 22.0 0.00 0.00 0.00 30 1010.9
20260505202122 77 251 20.0 26.0 0.00 0.00 0.00 30 1010.8
20260505201523 76 258 17.0 25.0 0.00 0.00 0.00 30 1011.0
20260505201026 76 258 17.0 25.0 0.00 0.00 0.00 30 1011.0
20260505200520 76 258 17.0 27.0 0.00 0.00 0.00 30 1011.0
20260505200033 76 234 18.0 25.0 0.00 0.00 0.00 30 1011.1
20260505195654 76 254 17.0 25.0 0.00 0.00 0.00 30 1011.1
20260505195102 76 242 21.0 33.0 0.00 0.00 0.00 30 1011.1
20260505194500 75 240 23.0 38.0 0.00 0.00 0.00 30 1011.4
20260505194000 75 250 22.0 31.0 0.00 0.00 0.00 30 1011.4
20260505193522 75 260 15.0 25.0 0.00 0.00 0.00 31 1011.6
20260505193000 73 344 8.0 13.0 0.00 0.00 0.00 37 1011.6
20260505192558 73 344 8.0 13.0 0.00 0.00 0.00 37 1011.6
20260505192056 74 32 8.0 17.0 0.00 0.00 0.00 35 1011.5
20260505191500 72 66 8.0 11.0 0.00 0.00 0.00 41 1011.9
20260505191021 72 66 8.0 11.0 0.00 0.00 0.00 41 1011.9
20260505190521 71 71 8.0 10.0 0.00 0.00 0.00 42 1012.0
20260505190000 71 57 7.0 11.0 0.00 0.00 0.00 42 1012.1
20260505185544 71 57 7.0 11.0 0.00 0.00 0.00 42 1012.1
20260505185103 71 68 8.0 11.0 0.00 0.00 0.00 41 1012.1
20260505184501 70 67 8.0 12.0 0.00 0.00 0.00 43 1012.2
20260505184000 70 67 8.0 11.0 0.00 0.00 0.00 43 1012.3
20260505183501 70 65 8.0 11.0 0.00 0.00 0.00 44 1012.3
20260505183001 70 76 7.0 10.0 0.00 0.00 0.00 44 1012.2
20260505182609 70 76 7.0 10.0 0.00 0.00 0.00 44 1012.2
20260505182050 70 67 7.0 10.0 0.00 0.00 0.00 46 1012.2
20260505181500 70 35 5.0 9.0 0.00 0.00 0.00 45 1012.3
20260505181020 70 35 5.0 9.0 0.00 0.00 0.00 45 1012.3
20260505180503 70 62 7.0 9.0 0.00 0.00 0.00 46 1012.2
20260505180002 70 54 7.0 9.0 0.00 0.00 0.00 46 1012.2
20260505175558 70 54 7.0 9.0 0.00 0.00 0.00 46 1012.2
20260505175106 70 47 7.0 11.0 0.00 0.00 0.00 46 1012.1
20260505174500 69 44 6.0 8.0 0.00 0.00 0.00 48 1012.1
20260505174001 69 56 6.0 8.0 0.00 0.00 0.00 48 1012.0
20260505173523 69 50 6.0 8.0 0.00 0.00 0.00 48 1012.0
20260505173021 69 57 6.0 8.0 0.00 0.00 0.00 47 1012.0
20260505172550 69 57 6.0 8.0 0.00 0.00 0.00 47 1012.0
20260505172044 69 61 6.0 9.0 0.00 0.00 0.00 47 1012.0
20260505171459 69 42 6.0 10.0 0.00 0.00 0.00 48 1011.9
20260505171028 69 42 6.0 10.0 0.00 0.00 0.00 48 1011.9
20260505170640 69 40 6.0 9.0 0.00 0.00 0.00 48 1012.0
20260505170057 69 34 8.0 10.0 0.00 0.00 0.00 48 1011.9
20260505165616 69 40 8.0 11.0 0.00 0.00 0.00 48 1011.8
20260505165104 68 53 6.0 8.0 0.00 0.00 0.00 48 1011.8
20260505164501 68 35 7.0 9.0 0.00 0.00 0.00 47 1011.9
20260505164000 68 19 7.0 9.0 0.00 0.00 0.00 48 1011.9
20260505163523 68 9 6.0 8.0 0.00 0.00 0.00 47 1011.9
20260505163009 68 24 6.0 8.0 0.00 0.00 0.00 47 1011.8
20260505162637 68 24 6.0 8.0 0.00 0.00 0.00 47 1011.8
20260505162229 68 23 6.0 7.0 0.00 0.00 0.00 47 1011.8
20260505161500 68 12 5.0 7.0 0.00 0.00 0.00 47 1011.8
20260505161023 68 12 5.0 7.0 0.00 0.00 0.00 47 1011.8
20260505160628 68 360 5.0 8.0 0.00 0.00 0.00 46 1011.8
20260505153208 67 1 6.0 9.0 0.00 0.00 0.00 50 1011.6
20260505152828 67 350 6.0 8.0 0.00 0.00 0.00 50 1011.6
20260505152419 66 355 5.0 8.0 0.00 0.00 0.00 51 1011.6
20260505151501 66 349 6.0 9.0 0.00 0.00 0.00 52 1011.5
20260505151026 66 349 6.0 9.0 0.00 0.00 0.00 52 1011.5
20260505150634 66 356 7.0 9.0 0.00 0.00 0.00 51 1011.5
20260505140551 64 349 6.0 8.0 0.00 0.00 0.00 54 1011.4
20260505124501 63 300 5.0 6.0 0.00 0.00 0.00 53 1010.8
20260505124002 64 336 6.0 8.0 0.00 0.00 0.00 54 1010.7
20260505123526 64 336 6.0 8.0 0.00 0.00 0.00 54 1010.7
20260505123039 64 349 6.0 8.0 0.00 0.00 0.00 53 1010.7
20260505122641 64 344 6.0 8.0 0.00 0.00 0.00 54 1010.7
20260505122141 64 350 7.0 11.0 0.00 0.00 0.00 52 1010.7
20260505121622 65 14 5.0 8.0 0.00 0.00 0.00 52 1010.7
20260505121244 65 26 5.0 8.0 0.00 0.00 0.00 52 1010.7
20260505120837 65 50 3.0 6.0 0.00 0.00 0.00 51 1010.7
20260505120233 65 67 3.0 4.0 0.00 0.00 0.00 50 1010.8
20260505115805 65 84 4.0 5.0 0.00 0.00 0.00 50 1010.8
20260505115226 65 101 3.0 4.0 0.00 0.00 0.00 50 1010.8
20260505114520 65 122 4.0 5.0 0.00 0.00 0.00 50 1010.8
20260505114021 64 125 4.0 5.0 0.00 0.00 0.00 51 1010.8
20260505113541 64 91 3.0 5.0 0.00 0.00 0.00 51 1010.9
20260505113022 64 149 2.0 4.0 0.00 0.00 0.00 52 1010.9
20260505112608 64 161 2.0 4.0 0.00 0.00 0.00 52 1010.9
20260505112044 64 115 1.0 3.0 0.00 0.00 0.00 51 1010.9
20260505111502 64 87 2.0 4.0 0.00 0.00 0.00 51 1010.9
20260505111111 64 87 2.0 4.0 0.00 0.00 0.00 51 1010.9
20260505110700 64 142 1.0 3.0 0.00 0.00 0.00 51 1010.9
20260505110139 64 182 3.0 4.0 0.00 0.00 0.00 51 1010.8
20260505102123 64 324 8.0 9.0 0.00 0.00 0.00 51 1010.6
20260505101531 64 332 7.0 8.0 0.00 0.00 0.00 52 1010.5
20260505101107 64 344 7.0 9.0 0.00 0.00 0.00 51 1010.6
20260505100609 64 337 8.0 10.0 0.00 0.00 0.00 50 1010.6
20260505100038 65 331 7.0 8.0 0.00 0.00 0.00 49 1010.7
20260505095602 65 336 7.0 8.0 0.00 0.00 0.00 48 1010.6
20260505095047 64 332 7.0 8.0 0.00 0.00 0.00 48 1010.6
20260505094504 65 313 7.0 8.0 0.00 0.00 0.00 48 1010.6
20260505094021 65 313 7.0 8.0 0.00 0.00 0.00 48 1010.6
20260505093503 65 318 7.0 8.0 0.00 0.00 0.00 48 1010.5
20260505093001 65 331 7.0 8.0 0.00 0.00 0.00 48 1010.5
20260505092542 65 331 7.0 8.0 0.00 0.00 0.00 48 1010.5
20260505092026 64 324 8.0 9.0 0.00 0.00 0.00 48 1010.5
20260505091500 64 331 7.0 9.0 0.00 0.00 0.00 46 1010.5
20260505091055 64 331 7.0 9.0 0.00 0.00 0.00 46 1010.5
20260505090653 66 326 6.0 8.0 0.00 0.00 0.00 44 1010.5
20260505090043 67 290 5.0 7.0 0.00 0.00 0.00 44 1010.5
20260505085632 67 267 7.0 9.0 0.00 0.00 0.00 44 1010.5
20260505085134 67 231 9.0 15.0 0.00 0.00 0.00 44 1010.6